Regional Weather Roundup
Issued by NWS

Home | Current Version | Previous Version | Text Only | Print | Product List | Glossary On
Versions: 1 2 3 4 5 6 7 8 9 10 11 12 13 14 15 16 17 18 19 20 21 22 23 24 25 26 27 28 29 30 31 32 33 34 35 36 37 38 39 40 41 42 43 44 45 46 47 48 49 50
000
ASUS44 KBMX 310410
RWRAL

ALABAMA REGIONAL WEATHER ROUNDUP
NATIONAL WEATHER SERVICE BIRMINGHAM AL
1100 PM CDT SAT AUG 30 2014

NOTE: "FAIR" INDICATES FEW OR NO CLOUDS BELOW 12,000 FEET
WITH NO SIGNIFICANT WEATHER AND/OR OBSTRUCTIONS TO VISIBILITY.

THE REMARK "TC" DENOTES TEMPERATURE IN DEGREES CELSIUS.

ALZ001>011-014-016>018-020-310500-
NORTH ALABAMA

CITY           SKY/WX    TMP DP  RH WIND       PRES   REMARKS
MUSCLE SHOALS  MOCLDY    72  69  90 SE5       30.10S
HUNTSVILLE     CLOUDY    73  72  96 S3        30.11F
DECATUR        PTCLDY    71  70  96 SE5       30.11F
HALEYVILLE     CLOUDY    69  69 100 CALM      30.14S FOG
GADSDEN        CLOUDY    72  68  88 N3        30.13F
$$

ALZ012-013-022-023-030>036-040>044-310500-
WEST CENTRAL ALABAMA

CITY           SKY/WX    TMP DP  RH WIND       PRES   REMARKS
TUSCALOOSA     MOCLDY    74  72  93 CALM      30.11R
$$

ALZ015-024>027-033>036-040>044-310500-
CENTRAL ALABAMA

CITY           SKY/WX    TMP DP  RH WIND       PRES   REMARKS
BIRMINGHAM     MOCLDY    73  71  93 CALM      30.14S
MONTGOMERY     PTCLDY    75  72  90 CALM      30.12S
SHELBY CO ARPT PTCLDY    72  70  93 CALM      30.13R
MAXWELL AFB    PTCLDY    74  74 100 CALM      30.12S
GREENVILLE     FAIR      75  72  90 CALM      30.12R
$$

ALZ019-021-028-029-037-038-045>048-310500-
EAST CENTRAL ALABAMA

CITY           SKY/WX    TMP DP  RH WIND       PRES   REMARKS
ANNISTON       CLOUDY    73  70  90 CALM      30.14S
ALEXANDER CITY MOCLDY    76  69  81 CALM      30.15R
AUBURN         MOCLDY    73  70  88 N5        30.17S
$$

ALZ051>064-310500-
SOUTHWEST ALABAMA

CITY           SKY/WX    TMP DP  RH WIND       PRES   REMARKS
MOBILE         MOCLDY    77  75  93 NE3       30.09S
BROOKLEY FIELD RAIN      77  76  96 CALM      30.09F
EVERGREEN      MOCLDY    78  74  87 CALM      30.11S
$$

ALZ049-050-065>069-310500-
SOUTHEAST ALABAMA

CITY           SKY/WX    TMP DP  RH WIND       PRES   REMARKS
DOTHAN         CLOUDY    79  74  84 SW5       30.15S
OZARK          CLOUDY    79  74  85 SW3       30.12S
TROY           MOCLDY    74  72  93 CALM      30.14R
EUFAULA        FAIR      77  73  87 CALM      30.12R
$$



USA.gov is the U.S. government's official web portal to all federal, state and local government web resources and services.